Location: Commenchon
(49.6411°N, 3.1571°E)
Time: 07:35:15
(UTC+00:00)

CZ-4B R/B - Pass Details

Date: 15 May 2026
Orbit: 442 x 558 km, 97.8° (Epoch: 6 June)

Event Time Altitude Azimuth Distance (km) Brightness Sun altitude
Exits shadow 20:50:03 18° 149° (SSE) 1,193 3.9 -11.3°
Maximum altitude 20:52:26 59° 73° (ENE) 536 2.6 -11.6°
Drops below altitude 10° 20:55:53 10° 353° (N) 1,637 6.2 -11.9°
Sets 20:58:00 0° 350° (N) 2,538 7.4 -12.1°
